Weather History for Kangerlussuaq, Greenland

Change the Weather History Date:

Tuesday, October 16, 2012

  Actual Average Record
Temperature  
Mean Temperature 40 °F -  
Max Temperature 45 °F 23 °F 46 °F (2001)
Min Temperature 35 °F 9 °F -7 °F (2011)
Degree Days  
Heating Degree Days 25    
Moisture  
Dew Point 20 °F    
Average Humidity 43    
Maximum Humidity 56    
Minimum Humidity 15    
Precipitation  
Precipitation 0.00 in 0.02 in - ()
Sea Level Pressure  
Sea Level Pressure 30.01 in    
Wind  
Wind Speed 11 mph ()    
Max Wind Speed 22 mph    
Max Gust Speed -    
Visibility 6.1 miles    
Events      
Averages and records for this station are not official NWS values.
T = Trace of Precipitation, MM = Missing Value Source: Averaged Metar Reports

Daily Weather History Graph

Daily Weather History Graph

Search for Another Location

Airport:

Trip Planner

Search our weather history database for the weather conditions in past years. The results will help you decide how hot, cold, wet, or windy it might be!

Date:

Astronomy

Oct. 16, 2012 Rise Set
Actual Time 8:27 AM WGST 5:47 PM WGST
Civil Twilight 7:32 AM WGST 6:42 PM WGST
Nautical Twilight 6:30 AM WGST 7:43 PM WGST
Astronomical Twilight 5:27 AM WGST 8:46 PM WGST
Moon 10:47 AM WGST (10/16) 5:15 PM WGST (10/16)
Length of Visible Light 11h 09m
Length of Day
9h 19m
New Moon, 2% of the Moon is Illuminated
Oct 16
New Moon
Oct 22
First Quarter
Oct 29
Full
Nov 6
Last Quarter
Nov 13
New

Hourly Weather History & Observations

Time (WGST) Temp. Windchill Dew Point Humidity Pressure Visibility Wind Dir Wind Speed Gust Speed Precip Events Conditions
12:20 AM 44.6 °F 37.8 °F 19.4 °F 37% 29.77 in 6.2 mi ENE 15.0 mph - N/A   Unknown
12:50 AM 44.6 °F 40.7 °F 17.6 °F 34% 29.77 in 6.2 mi ENE 6.9 mph - N/A   Unknown
1:00 AM 46 °F - 14 °F 16% 29.80 in 17 mi ENE 9.2 mph - -  
1:20 AM 42.8 °F 37.0 °F 19.4 °F 39% 29.80 in 6.2 mi ENE 10.4 mph - N/A   Unknown
1:50 AM 39.2 °F 34.2 °F 21.2 °F 49% 29.80 in 6.2 mi ENE 6.9 mph - N/A   Unknown
2:20 AM 41.0 °F 34.3 °F 21.2 °F 45% 29.80 in 6.2 mi ENE 11.5 mph - N/A   Unknown
2:50 AM 39.2 °F 33.0 °F 21.2 °F 49% 29.83 in 6.2 mi ENE 9.2 mph - N/A   Unknown
3:20 AM 37.4 °F 29.8 °F 21.2 °F 52% 29.86 in 6.2 mi NE 11.5 mph - N/A   Unknown
3:50 AM 39.2 °F 33.0 °F 21.2 °F 49% 29.86 in 6.2 mi ENE 9.2 mph - N/A   Unknown
4:00 AM 39 °F - 20 °F 32% 29.88 in 47 mi ENE 10.4 mph - -  
4:20 AM 37.4 °F 30.3 °F 23.0 °F 56% 29.89 in 6.2 mi ENE 10.4 mph - N/A   Unknown
4:50 AM 39.2 °F 31.6 °F 21.2 °F 49% 29.89 in 6.2 mi ENE 12.7 mph - N/A   Unknown
5:20 AM 39.2 °F 32.0 °F 21.2 °F 49% 29.92 in 6.2 mi ENE 11.5 mph - N/A   Unknown
5:50 AM 37.4 °F 29.8 °F 21.2 °F 52% 29.92 in 6.2 mi ENE 11.5 mph - N/A   Unknown
6:20 AM 37.4 °F 30.8 °F 21.2 °F 52% 29.95 in 6.2 mi NE 9.2 mph - N/A   Unknown
6:50 AM 39.2 °F 32.5 °F 21.2 °F 49% 29.95 in 5.6 mi ENE 10.4 mph - N/A   Unknown
7:00 AM 39 °F - 18 °F 29% 29.98 in 4 mi ENE 11.5 mph - -   Mist
7:20 AM 37.4 °F 29.8 °F 21.2 °F 52% 29.95 in 3.7 mi ENE 11.5 mph - N/A   Unknown
7:50 AM 37.4 °F 28.2 °F 21.2 °F 52% 29.98 in 3.1 mi NE 16.1 mph - N/A   Unknown
8:50 AM 41.0 °F 32.8 °F 17.6 °F 39% 30.01 in 3.7 mi ENE 16.1 mph - N/A   Partly Cloudy
9:50 AM 41.0 °F 31.4 °F 17.6 °F 39% 30.01 in 3.7 mi East 21.9 mph - N/A   Low Drifting Widespread Dust
10:00 AM 41 °F - 14 °F 21% 30.03 in 4 mi East 19.6 mph - -   Light Sandstorm
12:50 PM 46.4 °F 40.4 °F 17.6 °F 32% 30.04 in 6.2 mi SE 13.8 mph - N/A   Unknown
1:00 PM 46 °F - 13 °F 15% 30.05 in 22 mi ESE 15.0 mph - -  
1:20 PM 46.4 °F 41.1 °F 17.6 °F 32% 30.04 in 6.2 mi ENE 11.5 mph - N/A   Unknown
1:50 PM 44.6 °F 38.4 °F 21.2 °F 39% 30.04 in 6.2 mi East 12.7 mph - N/A   Unknown
2:20 PM 44.6 °F 37.2 °F 21.2 °F 39% 30.04 in 6.2 mi East 17.3 mph - N/A   Unknown
3:20 PM 44.6 °F 37.8 °F 23.0 °F 43% 30.04 in 6.2 mi NE 15.0 mph - N/A   Unknown
3:50 PM 44.6 °F 38.4 °F 21.2 °F 39% 30.06 in 6.2 mi NE 12.7 mph - N/A   Unknown
4:00 PM 44 °F - 19 °F 24% 30.08 in 47 mi NE 12.7 mph - -   Clear
4:20 PM 42.8 °F 36.6 °F 23.0 °F 46% 30.06 in 6.2 mi ENE 11.5 mph - N/A   Unknown
4:50 PM 42.8 °F 38.0 °F 23.0 °F 46% 30.06 in 6.2 mi ENE 8.1 mph - N/A   Unknown
5:20 PM 41.0 °F 34.3 °F 21.2 °F 45% 30.06 in 6.2 mi ENE 11.5 mph - N/A   Unknown
5:50 PM 41.0 °F 33.5 °F 23.0 °F 49% 30.09 in 6.2 mi ENE 13.8 mph - N/A   Unknown
6:20 PM 39.2 °F 32.0 °F 21.2 °F 49% 30.09 in 6.2 mi ENE 11.5 mph - N/A   Unknown
6:50 PM 37.4 °F 29.8 °F 23.0 °F 56% 30.12 in 6.2 mi ENE 11.5 mph - N/A   Unknown
7:00 PM 39 °F - 19 °F 31% 30.14 in 31 mi NE 11.5 mph - -  
7:20 PM 39.2 °F 32.0 °F 21.2 °F 49% 30.12 in 6.2 mi ENE 11.5 mph - N/A   Unknown
7:50 PM 37.4 °F 29.8 °F 23.0 °F 56% 30.12 in 6.2 mi ENE 11.5 mph - N/A   Unknown
8:20 PM 37.4 °F 30.3 °F 21.2 °F 52% 30.15 in 6.2 mi ENE 10.4 mph - N/A   Unknown
8:50 PM 37.4 °F 31.4 °F 21.2 °F 52% 30.15 in 6.2 mi NE 8.1 mph - N/A   Unknown
9:20 PM 39.2 °F 33.0 °F 21.2 °F 49% 30.15 in 6.2 mi ENE 9.2 mph - N/A   Unknown
9:50 PM 39.2 °F 32.0 °F 21.2 °F 49% 30.15 in 6.2 mi ENE 11.5 mph - N/A   Unknown
10:00 PM 39 °F - 18 °F 29% 30.19 in 47 mi ENE 10.4 mph - -   Scattered Clouds
10:20 PM 37.4 °F 30.3 °F 21.2 °F 52% 30.18 in 6.2 mi ENE 10.4 mph - N/A   Unknown
10:50 PM 35.6 °F 27.5 °F 21.2 °F 56% 30.18 in 6.2 mi ENE 11.5 mph - N/A   Unknown
11:20 PM 37.4 °F 29.8 °F 21.2 °F 52% 30.18 in 6.2 mi NE 11.5 mph - N/A   Unknown
11:50 PM 35.6 °F 27.5 °F 21.2 °F 56% 30.18 in 6.2 mi ENE 11.5 mph - N/A   Unknown